Regional Weather Roundup
Issued by NWS

Home | Current Version | Previous Version | Graphics & Text | Print | Product List | Glossary On
Versions: 1 2 3 4 5 6 7 8 9 10 11 12 13 14 15 16 17 18 19 20 21 22 23 24 25 26 27 28 29 30 31 32 33 34 35 36 37 38 39 40 41 42 43 44 45 46 47 48 49 50
000
ASUS43 KDMX 221101
RWRIA

WEATHER ROUNDUP FOR IOWA
NATIONAL WEATHER SERVICE DES MOINES IA
600 AM CDT SUN OCT 22 2017

NOTE: "FAIR" INDICATES FEW OR NO CLOUDS BELOW 12,000 FEET WITH NO
SIGNIFICANT WEATHER AND/OR OBSTRUCTIONS TO VISIBILITY.

* - THESE STATIONS ARE NOT NWS STATIONS...THUS NOT UNDER NWS
QUALITY CONTROL.  THEY ALSO DO NOT REPORT WEATHER SUCH
AS PRECIPITATION OR FOG.

IAZ001>003-012>014-020>022-031>034-043>046-221200-
   NORTHWEST IOWA

CITY           SKY/WX    TMP DP  RH WIND       PRES   REMARKS
DENISON *      PTCLDY    45  41  87 CALM      30.05R
LE MARS *      CLEAR     36  36 100 S5        30.03R WCI  32
ORANGE CITY *  CLEAR     39  37  93 CALM      30.02R
SHELDON *      CLEAR     34  32  93 S3        30.00R
SIOUX CITY     CLEAR     36  35  96 CALM      30.04R
SPENCER        PTCLDY    39  37  92 SW6       30.01R WCI  35
STORM LAKE *   PTCLDY    43  39  87 W8        30.01R
$$

IAZ055>058-069>071-079>083-090>094-221200-
   SOUTHWEST IOWA

CITY           SKY/WX    TMP DP  RH WIND       PRES   REMARKS
ATLANTIC *     CLOUDY    46  43  87 CALM      30.04R
AUDUBON *      CLOUDY    46  43  87 CALM      30.04R
CLARINDA *       N/A     50  43  76 N3        30.07R
COUNCIL BLFS * CLOUDY    45  43  93 W6        30.06R
CRESTON *      CLOUDY    48  45  87 W7        30.04R
HARLAN  *      CLOUDY    45  43  93 CALM      30.08R
LAMONI         CLOUDY    49  48  97 CALM      30.01R
RED OAK *      MOCLDY    46  43  87 S3        30.06R
SHENANDOAH *   CLOUDY    48  43  81 CALM      30.07R
$$

IAZ047>049-059>061-072>074-084-221200-
   CENTRAL IOWA

CITY           SKY/WX    TMP DP  RH WIND       PRES   REMARKS
AMES           CLOUDY    49  48  97 W3        29.99S
ANKENY *       CLOUDY    50  46  87 NW3       30.00S
BOONE *        CLOUDY    50  45  81 W6        29.99R
CHARITON *     CLOUDY    50  48  93 NW6       29.99S
DES MOINES     CLOUDY    51  46  83 W7        30.00R
GRINNELL*      RAIN      49  47  92 NW3       29.99R
KNOXVILLE *    CLOUDY    50  48  93 NW3       29.97F
MARSHALLTOWN   CLOUDY    50  48  93 W6        29.97S
NEWTON *       CLOUDY    50  48  93 CALM      29.98S
PELLA *        LGT RAIN  50  48  95 CALM      29.99F
PERRY *          N/A     49  46  90 W6        30.02R
$$

IAZ004>006-015-016-023>025-035-036-221200-
   NORTH CENTRAL IOWA

CITY           SKY/WX    TMP DP  RH WIND       PRES   REMARKS
ALGONA *       CLOUDY    46  43  87 W5        30.00R
CLARION *      CLOUDY    48  46  93 W6        29.99R
ESTHERVILLE    CLOUDY    43  40  89 W7        29.99R
FORT DODGE *   CLOUDY    48  42  80 CALM      30.01R
MASON CITY     CLOUDY    48  43  82 W8        29.99R
FOREST CITY *    N/A     46  43  87 W5        29.99R
WEBSTER CITY * CLOUDY    48  43  81 NW5       29.98R
IOWA FALLS *   MOCLDY    49  46  88 W6        30.00R
$$

IAZ007>011-017>019-026>030-037>042-050>054-066-221200-
   NORTHEAST IOWA

CITY           SKY/WX    TMP DP  RH WIND       PRES   REMARKS
CEDAR RAPIDS   LGT RAIN  51  49  92 NW12      29.95R
CHARLES CITY * CLOUDY    50  48  93 W6        29.98R
CLINTON *      LGT RAIN  57  56  96 NW14      29.91R
DECORAH *      CLOUDY    50  48  93 CALM      29.95R
DUBUQUE        RAIN      54  52  93 NW13      29.92R
MONTICELLO *   LGT RAIN  52  50  93 NW12      29.91F
OELWEIN *      CLOUDY    50  50 100 NW8       29.96R
WATERLOO       LGT RAIN  49  47  93 W5        29.96R
$$

IAZ064-065-067-068-078-221200-
   EAST CENTRAL IOWA

CITY           SKY/WX    TMP DP  RH WIND       PRES   REMARKS
DAVENPORT      CLOUDY    55  53  93 NW9       29.92R
IOWA CITY      LGT RAIN  54  50  86 NW9       29.96R
MUSCATINE *    RAIN      55  52  88 NW12      29.93R
QUAD CITIES    LGT RAIN  57  54  89 NW12      29.90R
$$

IAZ062-063-075>077-085>089-095>099-221200-
   SOUTHEAST IOWA

CITY           SKY/WX    TMP DP  RH WIND       PRES   REMARKS
BURLINGTON     LGT RAIN  55  54  96 NW14G21   29.92R
FAIRFIELD *    CLOUDY    52  48  87 NW12      29.95F
FORT MADISON * RAIN      54  54 100 N9        29.95R
KEOKUK *       CLOUDY    54  52  94 N10       29.94R
OSKALOOSA *    RAIN      49  48  95 N9        29.99S
OTTUMWA        RAIN      50  49  96 N9        29.98R
WASHINGTON *   CLOUDY    52  50  93 NW14      29.96R
$$

ABBREVIATIONS USED IN REMARKS
   TC - TEMPERATURES IN CELSIUS
  WCI - WIND CHILL INDEX
   HX - HEAT INDEX
  VSB - VISIBILITY
$$





USA.gov is the U.S. government's official web portal to all federal, state and local government web resources and services.